User: anonymous   Login
Location: Unspecified
(0.0000°N, 0.0000°E)
Time: 17:21:51
(UTC+00:00)
Language:

TDS 1 - Orbit

View from above orbital plane
View from above orbital plane
View from above satellite
View from above satellite

Ground track
Ground track

The orbit data is extracted from the following two-line orbital elements,

1 40076U 14037H   21337.12901149  .00000797  00000-0  10053-3 0  9990
2 40076  98.4153 194.2347 0006856 354.7130   5.4009 14.84968196400645
Epoch (UTC): 03 December 2021 03:05:46
Eccentricity: 0.0006856
inclination: 98.4153°
perigee height: 609 km
apogee height: 618 km
right ascension of ascending node: 194.2347°
argument of perigee: 354.7130°
revolutions per day: 14.84968196
mean anomaly at epoch: 5.4009°
orbit number at epoch: 40064

The dashed part of the orbit path shows where the satellite is in the earth's shadow,  

DLR